Regional Weather Roundup
Issued by NWS

Home | Current Version | Previous Version | Graphics & Text | Print | Product List | Glossary On
Versions: 1 2 3 4 5 6 7 8 9 10 11 12 13 14 15 16 17 18 19 20 21 22 23 24 25 26 27 28 29 30 31 32 33 34 35 36 37 38 39 40 41 42 43 44 45 46 47 48 49 50
000
ASUS43 KBIS 160210
RWRND

NORTH DAKOTA REGIONAL WEATHER ROUNDUP
NATIONAL WEATHER SERVICE BISMARCK ND
900 PM CDT MON SEP 15 2014

NOTE: "FAIR" INDICATES FEW OR NO CLOUDS BELOW 12,000 FEET WITH NO
SIGNIFICANT WEATHER AND/OR OBSTRUCTIONS TO VISIBILITY.


NDZ001>003-009>011-017-160300-
NORTHWEST NORTH DAKOTA

CITY           SKY/WX    TMP DP  RH WIND       PRES   REMARKS
WILLISTON      CLEAR     45  35  68 CALM      30.06S
MINOT          CLEAR     57  36  45 SW5       30.07S
MINOT AFB      CLEAR     47  38  71 SW6       30.06S
$$

NDZ018>021-031>035-040>046-160300-
SOUTHWEST NORTH DAKOTA

CITY           SKY/WX    TMP DP  RH WIND       PRES   REMARKS
BISMARCK       CLEAR     56  38  50 S7        30.12S
DICKINSON      CLEAR     51  37  58 S6        30.09S
GARRISON         N/A     52  42  69 CALM      30.09S
HETTINGER ARPT CLEAR     53  39  59 SE6       30.12S
$$

NDZ004>008-012>016-024-026-027-054-160300-
NORTHEAST NORTH DAKOTA

CITY           SKY/WX    TMP DP  RH WIND       PRES   REMARKS
GRAND FORKS    CLEAR     53  41  63 SW6       30.08R
GRND FRKS AFB  CLEAR     50  43  77 SW5       30.09R
DEVILS LAKE    CLEAR     50  37  62 SW3       30.08R
$$

NDZ022-023-025-028>030-036>039-047>053-160300-
SOUTHEAST NORTH DAKOTA

CITY           SKY/WX    TMP DP  RH WIND       PRES   REMARKS
FARGO          CLEAR     52  40  63 S9        30.13S
JAMESTOWN      CLEAR     48  39  71 S5        30.13S
$$




USA.gov is the U.S. government's official web portal to all federal, state and local government web resources and services.